{"data":{"norad_id":53190,"intl_designator":"2022-084B","name":"STARLINK-4332","alt_names":[],"object_type":"PAYLOAD","status":"ACTIVE","operator":null,"country":"US","launch_date":"2022-07-22","launch_site_code":"AFWTR","launch_vehicle":null,"mission":null,"orbit_class":"UNKNOWN","rcs_meters":null,"size_class":null,"mass_kg":null,"dimensions":null,"purposes":["comms"],"wikipedia_slug":null,"has_3d_model":false,"image_url":null,"decayed_at":null,"tle_current":{"epoch":"2026-09-19T09:12:07.016256Z","epoch_age_seconds":168728,"freshness":"FRESH","line1":"1 53190U 22084B   26262.38341454 -.00000848  00000+0 -23948-4 0  9995","line2":"2 53190  97.2817 318.1736 0000958  85.0025 275.1328 15.33422974229253","mean_motion":15.33422974,"eccentricity":9.58e-5,"inclination_deg":97.2817,"raan_deg":318.1736,"arg_perigee_deg":85.0025,"mean_anomaly_deg":275.1328,"bstar":-2.3948e-5,"rev_number":22925,"period_min":93.907553520194,"perigee_km":464.95307830302,"apogee_km":466.26433998089,"semimajor_km":6843.745709142,"source":"CELESTRAK","updated_at":"2026-09-20T09:00:40.188965Z"}}}